Dyersburg, TN

1:17 PM CDT on April 26, 2017 (GMT -0500)
Dyersburg Municipal

Weather History for KDYR - November, 2012

Change the Weather History Date:

Wednesday, November 28, 2012

  Actual Average Record
Temperature  
Mean Temperature 38 °F -  
Max Temperature 51 °F 53 °F 73 °F (1998)
Min Temperature 24 °F 37 °F 19 °F (2013)
Degree Days  
Heating Degree Days 28    
Moisture  
Dew Point 22 °F    
Average Humidity 60    
Maximum Humidity 81    
Minimum Humidity 35    
Precipitation  
Precipitation 0.00 in - - ()
Sea Level Pressure  
Sea Level Pressure 30.43 in    
Wind  
Wind Speed 0 mph (ESE)    
Max Wind Speed 5 mph    
Max Gust Speed -    
Visibility 8 miles    
Events      
Averages and records for this station are not official NWS values.
T = Trace of Precipitation, MM = Missing Value Source: NWS Daily Summary

Daily Weather History Graph

Daily Weather History Graph

Search for Another Location

Airport or City:

Trip Planner

Search our weather history database for the weather conditions in past years. The results will help you decide how hot, cold, wet, or windy it might be!

Date:

Astronomy

Nov. 28, 2012 Rise Set
Actual Time 6:47 AM CST 4:44 PM CST
Civil Twilight 6:19 AM CST 5:12 PM CST
Nautical Twilight 5:47 AM CST 5:43 PM CST
Astronomical Twilight 5:16 AM CST 6:14 PM CST
Moon 4:59 PM CST (11/28) 6:44 AM CST (11/28)
Length of Visible Light 10h 52m
Length of Day
9h 56m
Full, 100% of the Moon is Illuminated
Nov 28
Full
Dec 6
Last Quarter
Dec 13
New
Dec 19
First Quarter
Dec 28
Full

Hourly Weather History & Observations

Time (CST) Temp. Windchill Dew Point Humidity Pressure Visibility Wind Dir Wind Speed Gust Speed Precip Events Conditions
12:16 AM 28.4 °F - 21.2 °F 74% 30.40 in 5.0 mi Calm Calm - N/A   Clear
12:35 AM 28.4 °F - 19.4 °F 69% 30.40 in 7.0 mi Calm Calm - N/A   Clear
12:55 AM 26.6 °F - 19.4 °F 74% 30.41 in 3.0 mi Calm Calm - N/A   Clear
1:35 AM 26.6 °F - 17.6 °F 69% 30.41 in 3.0 mi Calm Calm - N/A   Clear
1:55 AM 26.6 °F - 19.4 °F 74% 30.41 in 4.0 mi Calm Calm - N/A   Clear
2:15 AM 26.6 °F - 19.4 °F 74% 30.41 in 4.0 mi Calm Calm - N/A   Clear
2:36 AM 26.6 °F - 19.4 °F 74% 30.42 in 3.0 mi Calm Calm - N/A   Clear
2:55 AM 28.4 °F - 19.4 °F 69% 30.42 in 6.0 mi Calm Calm - N/A   Clear
3:15 AM 26.6 °F - 17.6 °F 69% 30.42 in 5.0 mi Calm Calm - N/A   Clear
3:35 AM 26.6 °F - 19.4 °F 74% 30.42 in 5.0 mi Calm Calm - N/A   Clear
3:55 AM 26.6 °F - 17.6 °F 69% 30.42 in 5.0 mi Calm Calm - N/A   Clear
4:15 AM 26.6 °F - 17.6 °F 69% 30.42 in 5.0 mi Calm Calm - N/A   Clear
4:35 AM 24.8 °F - 17.6 °F 74% 30.43 in 3.0 mi Calm Calm - N/A   Clear
4:56 AM 24.8 °F - 17.6 °F 74% 30.43 in 5.0 mi Calm Calm - N/A   Clear
5:15 AM 26.6 °F - 17.6 °F 69% 30.43 in 5.0 mi Calm Calm - N/A   Clear
5:35 AM 26.6 °F - 17.6 °F 69% 30.43 in 5.0 mi Calm Calm - N/A   Clear
6:15 AM 26.6 °F - 17.6 °F 69% 30.44 in 8.0 mi Calm Calm - N/A   Clear
6:35 AM 24.8 °F - 17.6 °F 74% 30.45 in 5.0 mi Calm Calm - N/A   Clear
7:15 AM 24.8 °F - 17.6 °F 74% 30.47 in 5.0 mi Calm Calm - N/A   Clear
7:35 AM 26.6 °F - 17.6 °F 69% 30.48 in 5.0 mi Calm Calm - N/A   Clear
8:15 AM 30.2 °F - 23.0 °F 75% 30.49 in 4.0 mi Calm Calm - N/A   Clear
8:35 AM 32.0 °F - 24.8 °F 75% 30.49 in 4.0 mi Calm Calm - N/A   Clear
8:55 AM 33.8 °F - 28.4 °F 81% 30.50 in 5.0 mi Calm Calm - N/A   Clear
9:16 AM 35.6 °F - 28.4 °F 75% 30.50 in 7.0 mi Calm Calm - N/A   Clear
9:35 AM 37.4 °F - 28.4 °F 70% 30.50 in 7.0 mi Calm Calm - N/A   Clear
9:55 AM 39.2 °F - 28.4 °F 65% 30.50 in 8.0 mi Calm Calm - N/A   Clear
10:35 AM 44.6 °F - 28.4 °F 53% 30.50 in 10.0 mi Calm Calm - N/A   Clear
11:15 AM 44.6 °F - 26.6 °F 49% 30.50 in 10.0 mi Calm Calm - N/A   Clear
11:35 AM 44.6 °F 42.2 °F 28.4 °F 53% 30.49 in 10.0 mi North 4.6 mph - N/A   Clear
11:55 AM 46.4 °F 45.2 °F 28.4 °F 50% 30.48 in 10.0 mi NW 3.5 mph - N/A   Clear
12:55 PM 48.2 °F - 26.6 °F 43% 30.45 in 10.0 mi Calm Calm - N/A   Clear
1:15 PM 48.2 °F - 26.6 °F 43% 30.44 in 10.0 mi Calm Calm - N/A   Clear
1:55 PM 48.2 °F - 26.6 °F 43% 30.43 in 10.0 mi WNW 4.6 mph - N/A   Clear
2:15 PM 48.2 °F - 26.6 °F 43% 30.42 in 10.0 mi Calm Calm - N/A   Clear
2:35 PM 50.0 °F - 26.6 °F 40% 30.41 in 10.0 mi Calm Calm - N/A   Clear
2:55 PM 50.0 °F - 24.8 °F 37% 30.41 in 10.0 mi SSE 3.5 mph - N/A   Clear
3:15 PM 51.8 °F - 24.8 °F 35% 30.41 in 10.0 mi Calm Calm - N/A   Clear
3:35 PM 50.0 °F - 24.8 °F 37% 30.41 in 10.0 mi Calm Calm - N/A   Clear
3:56 PM 48.2 °F - 24.8 °F 40% 30.41 in 10.0 mi ESE 3.5 mph - N/A   Clear
4:15 PM 48.2 °F - 24.8 °F 40% 30.41 in 10.0 mi Calm Calm - N/A   Clear
4:35 PM 46.4 °F - 26.6 °F 46% 30.41 in 10.0 mi Calm Calm - N/A   Clear
4:56 PM 44.6 °F - 24.8 °F 46% 30.41 in 10.0 mi Calm Calm - N/A   Clear
5:15 PM 44.6 °F - 24.8 °F 46% 30.41 in 10.0 mi Calm Calm - N/A   Clear
5:35 PM 41.0 °F - 24.8 °F 53% 30.41 in 10.0 mi Calm Calm - N/A   Clear
5:55 PM 41.0 °F - 24.8 °F 53% 30.41 in 10.0 mi Calm Calm - N/A   Clear
6:15 PM 39.2 °F - 23.0 °F 52% 30.41 in 10.0 mi Calm Calm - N/A   Clear
6:35 PM 37.4 °F - 23.0 °F 56% 30.41 in 10.0 mi Calm Calm - N/A   Clear
6:55 PM 39.2 °F - 23.0 °F 52% 30.42 in 10.0 mi Calm Calm - N/A   Clear
7:16 PM 39.2 °F - 23.0 °F 52% 30.41 in 10.0 mi Calm Calm - N/A   Clear
7:35 PM 35.6 °F - 21.2 °F 56% 30.41 in 10.0 mi Calm Calm - N/A   Clear
7:55 PM 37.4 °F - 23.0 °F 56% 30.41 in 10.0 mi Calm Calm - N/A   Clear
8:35 PM 35.6 °F - 23.0 °F 60% 30.41 in 10.0 mi Calm Calm - N/A   Clear
8:55 PM 35.6 °F - 21.2 °F 56% 30.41 in 10.0 mi Calm Calm - N/A   Clear
9:35 PM 33.8 °F - 21.2 °F 60% 30.40 in 10.0 mi Calm Calm - N/A   Clear
9:55 PM 33.8 °F - 21.2 °F 60% 30.40 in 10.0 mi Calm Calm - N/A   Clear
10:15 PM 33.8 °F 29.6 °F 21.2 °F 60% 30.40 in 10.0 mi SSE 4.6 mph - N/A   Clear
10:35 PM 33.8 °F - 21.2 °F 60% 30.40 in 10.0 mi Calm Calm - N/A   Clear
10:55 PM 33.8 °F - 21.2 °F 60% 30.40 in 10.0 mi Calm Calm - N/A   Clear
11:15 PM 32.0 °F - 21.2 °F 64% 30.40 in 10.0 mi Calm Calm - N/A   Clear
11:36 PM 28.4 °F - 19.4 °F 69% 30.39 in 10.0 mi Calm Calm - N/A   Clear
11:55 PM 28.4 °F 24.6 °F 19.4 °F 69% 30.39 in 10.0 mi SE 3.5 mph - N/A   Clear